THORAD AGENA D DEB, 4749

Orbit data source: Space-Track

THORAD AGENA D DEB, 4749 is space debris in SSO originally from a launch on Wed, 08 Apr 1970 UTC launched from the Air Force Western Test Range (AFWTR). Debris objects in space refer to the collection of defunct objects orbiting the Earth. Examples of debris include non-operational satellites, rocket bodies, and fragments generated from explosions, collisions, or faulty payload assembly.

Loading next visibility...
Identifier
4749, 1970-025CX
Orbit
SSO
Country
Flag of USUS
Related business
Manufacturer
Unknown
Mission
Spacecraft
Bus & Motor
Unknown
Mass
Unknown
Launch date (UTC)
1970-04-08 (56 years ago)
Launch vehicle
Unknown
Launch site
Air Force Western Test Range (AFWTR)
Object type
Payload
Rocket body
Debris
Shape & HBR
Unknown shape, 0.1 m
Radar Cross Section
Medium (>0.1 m² and <1 m²)

Expand to show TLE details & history
Last TLE update: 12 hours ago

TLE from 12 hours ago
0 THORAD AGENA D DEB
1 04749U 70025CX  26208.06317089  .00000981  00000-0  88681-3 0  9992
2 04749  98.9987  41.0418 0013337 251.3319 108.6390 13.86127715808874
Epoch: 2026-07-27T01:30Z
TLE epoch observation values (Epoch: 2026-07-27T01:30:57.964Z)
Latitude
-0.00006°
Longitude
73.54816°
Altitude
948.224 km
Speed
7.376 km/s
True Right ascension
02h 44m 10s
True Declination
0° 00' 00"
Sunlit
Object was in daylight at epoch
Visualization orbit readout
Latitude
Unknown
Longitude
Unknown
Altitude
Unknown
Speed
Unknown
Apparent Right ascension
Unknown
Apparent Declination
Unknown
Sunlit
N/A
Visualization observer readout
Local Sidereal Time
02:21:43
Azimuth
Unknown
Elevation
Unknown
Doppler factor
Unknown
Orbital elements
Apogee altitude
949.21 km
Perigee altitude
929.691 km
Semi-major axis
7,317.588 km
Eccentricity
0.00133
Inclination
98.9987°
RAAN
41.0418°
Arg. of periapsis
251.3319°
True anomaly
108.78374°
Mean anomaly
108.639°
Eccentric anomaly
108.71138°
Mean motion
3.4673 °/min
Orbital period
103.83 mins
BSTAR
0.00088681
Loading maneuver chart data...
Computing Atmospheric mass density...

Documentation

Showing up to 5 results
|